FW7362 Weather Reports


time (UTC)temp
C
wind
direction
speed
KPH
gust
KPH
rain 1hr
cm
rain 24hr
cm
rain mn
cm
humidity
%
barometer
mb
20260510022637 11 328 3.2 4.8 0.00 2.11 2.11 99 1011.0
20260510022132 11 3 0.0 0.0 0.00 2.11 2.11 99 1010.7
20260510021628 11 8 0.0 1.6 0.00 2.11 2.11 99 1010.5
20260510021126 11 350 3.2 3.2 0.30 2.11 2.11 99 1010.6
20260510020626 11 33 0.0 3.2 0.30 2.08 2.08 99 1011.0
20260510020121 11 287 4.8 4.8 0.30 2.06 2.06 99 1011.4
20260510015618 11 332 0.0 3.2 0.13 2.03 2.03 99 1011.4
20260510015114 11 346 0.0 3.2 0.18 2.01 2.01 99 1011.4
20260510014610 11 357 0.0 1.6 0.48 2.01 2.01 99 1010.9
20260510014108 11 79 4.8 4.8 0.61 1.98 1.98 99 1011.0
20260510013602 11 342 1.6 3.2 0.48 1.93 1.93 98 1011.6
20260510013058 11 8 0.0 1.6 0.61 1.88 1.88 97 1011.4
20260510012557 11 358 4.8 4.8 0.61 1.83 1.83 97 1011.1
20260510012054 11 3 0.0 0.0 0.48 1.78 1.78 96 1011.3
20260510011553 11 359 0.0 0.0 0.61 1.73 1.73 95 1011.2
20260510011049 11 3 0.0 0.0 1.85 1.68 1.68 94 1011.2
20260510010546 12 25 0.0 1.6 2.59 1.60 1.60 92 1011.1
20260510010043 12 272 9.7 12.9 1.68 1.35 1.35 90 1011.3
20260510005539 13 356 1.6 16.1 0.89 1.17 1.17 86 1010.7
20260510005037 15 1 8.0 16.1 0.30 1.07 1.07 80 1010.3
20260510004534 17 42 4.8 9.7 0.00 1.02 1.02 74 1009.9
20260510004032 17 354 1.6 6.4 0.00 1.02 1.02 69 1008.9
20260510003529 17 300 8.0 17.7 0.00 1.02 1.02 68 1008.7
20260510003024 17 278 6.4 9.7 0.00 1.02 1.02 69 1008.6
20260510002520 17 299 3.2 6.4 0.00 1.02 1.02 69 1008.6
20260510002017 17 323 3.2 11.3 0.00 1.02 1.02 69 1008.4
20260510001514 17 302 8.0 14.5 0.00 1.02 1.02 68 1008.5
20260510001012 17 255 9.7 12.9 0.00 1.02 1.02 68 1008.1
20260510000512 17 308 4.8 11.3 0.00 1.02 1.02 68 1007.8
20260510000010 17 292 12.9 17.7 0.00 1.02 1.02 67 1008.3
20260509235506 17 247 11.3 14.5 0.00 1.02 1.02 68 1008.1
20260509235003 17 234 8.0 11.3 0.00 1.02 1.02 67 1008.1
20260509234459 17 206 11.3 14.5 0.00 1.02 1.02 68 1008.1
20260509233957 17 242 6.4 11.3 0.00 1.02 1.02 67 1007.8
20260509233454 17 338 3.2 12.9 0.00 1.02 1.02 67 1007.7
20260509232950 17 294 6.4 9.7 0.00 1.02 1.02 67 1007.6
20260509232448 17 335 3.2 11.3 0.00 1.02 1.02 67 1007.6
20260509231944 18 324 4.8 6.4 0.00 1.02 1.02 66 1007.6
20260509231441 18 250 6.4 20.9 0.00 1.02 1.02 65 1007.7
20260509230939 18 298 4.8 11.3 0.00 1.02 1.02 64 1007.8
20260509230435 18 304 16.1 20.9 0.00 1.02 1.02 63 1007.6
20260509225931 18 307 11.3 14.5 0.00 1.02 1.02 64 1007.9
20260509225428 18 282 6.4 16.1 0.00 1.02 1.02 65 1007.7
20260509224924 18 276 4.8 11.3 0.00 1.02 1.02 64 1007.9
20260509224419 18 242 14.5 17.7 0.00 1.02 1.02 62 1008.0
20260509223917 18 241 9.7 16.1 0.00 1.02 1.02 63 1007.9
20260509223413 18 299 16.1 20.9 0.00 1.02 1.02 64 1007.9
20260509222911 18 278 9.7 17.7 0.00 1.02 1.02 63 1007.6
20260509222406 19 285 8.0 12.9 0.00 1.02 1.02 62 1007.2
20260509221901 18 251 6.4 17.7 0.00 1.02 1.02 61 1007.2
20260509221359 18 299 8.0 20.9 0.00 1.02 1.02 62 1007.4
20260509220855 18 276 6.4 14.5 0.00 1.02 1.02 63 1007.8
20260509220351 18 247 11.3 24.1 0.00 1.02 1.02 62 1007.4
20260509215846 18 285 8.0 20.9 0.00 1.02 1.02 61 1007.4
20260509215343 18 268 11.3 14.5 0.00 1.02 1.02 61 1007.6
20260509214840 18 252 14.5 17.7 0.00 1.02 1.02 61 1007.6
20260509214338 18 309 14.5 17.7 0.00 1.02 1.02 62 1007.5
20260509213835 18 233 9.7 17.7 0.00 1.02 1.02 65 1007.6
20260509213330 18 224 6.4 14.5 0.00 1.02 1.02 63 1007.8
20260509212828 18 329 4.8 12.9 0.00 1.02 1.02 64 1007.6
20260509212326 18 291 14.5 20.9 0.00 1.02 1.02 63 1008.0
20260509211821 18 250 11.3 20.9 0.00 1.02 1.02 63 1007.9
20260509211317 18 231 11.3 12.9 0.00 1.02 1.02 63 1007.9
20260509210814 18 299 9.7 20.9 0.00 1.02 1.02 63 1007.9
20260509210312 18 245 12.9 17.7 0.00 1.02 1.02 65 1007.9
20260509205811 18 310 9.7 16.1 0.00 1.02 1.02 65 1008.1
20260509205307 19 231 14.5 17.7 0.00 1.02 1.02 64 1008.1
20260509204802 19 282 12.9 20.9 0.00 1.02 1.02 66 1008.1
20260509204258 19 296 20.9 27.4 0.00 1.02 1.02 63 1008.1
20260509203754 18 257 14.5 29.0 0.00 1.02 1.02 64 1008.3
20260509203252 18 240 24.1 41.8 0.00 1.02 1.02 62 1008.5
20260509202748 18 274 14.5 24.1 0.00 1.02 1.02 65 1008.4
20260509202245 18 259 16.1 17.7 0.00 1.02 1.02 66 1008.6
20260509201744 18 229 11.3 20.9 0.00 1.02 1.02 65 1008.7
20260509201241 18 323 3.2 11.3 0.00 1.02 1.02 68 1008.6
20260509200737 18 284 12.9 20.9 0.00 1.02 1.02 67 1008.5
20260509200238 18 295 11.3 17.7 0.00 1.02 1.02 67 1008.8
20260509195734 18 265 9.7 20.9 0.00 1.02 1.02 67 1008.8
20260509195229 18 288 9.7 22.5 0.00 1.02 1.02 68 1009.0
20260509194724 18 289 11.3 22.5 0.00 1.02 1.02 69 1008.9
20260509194221 18 260 12.9 14.5 0.00 1.02 1.02 70 1009.0
20260509193718 18 241 12.9 17.7 0.00 1.02 1.02 68 1008.9
20260509193217 18 256 9.7 14.5 0.00 1.02 1.02 70 1008.9
20260509192714 17 248 11.3 24.1 0.00 1.02 1.02 75 1009.2
20260509192209 17 258 8.0 14.5 0.00 1.02 1.02 74 1009.0
20260509191705 17 315 9.7 24.1 0.00 1.02 1.02 73 1009.3
20260509191201 17 321 12.9 20.9 0.00 1.02 1.02 75 1009.4
20260509190658 16 280 11.3 20.9 0.00 1.02 1.02 76 1009.3
20260509190155 16 245 9.7 17.7 0.00 1.02 1.02 76 1009.3
20260509185653 16 197 12.9 22.5 0.00 1.02 1.02 78 1009.3
20260509185148 16 272 11.3 16.1 0.00 1.02 1.02 79 1009.3
20260509184646 16 271 8.0 20.9 0.00 1.02 1.02 80 1009.5
20260509184142 16 250 8.0 20.9 0.00 1.02 1.02 80 1009.6
20260509183639 17 317 6.4 12.9 0.00 1.02 1.02 79 1009.3
20260509183134 17 253 16.1 17.7 0.00 1.02 1.02 78 1009.3
20260509182630 17 229 12.9 14.5 0.00 1.02 1.02 79 1009.4
20260509182128 16 223 12.9 22.5 0.00 1.02 1.02 80 1009.4
20260509181626 16 280 8.0 12.9 0.00 1.02 1.02 83 1009.7
20260509181123 16 302 8.0 11.3 0.00 1.02 1.02 82 1009.4
20260509180619 16 323 4.8 16.1 0.00 1.02 1.02 82 1009.4
20260509180116 16 324 8.0 11.3 0.00 1.02 1.02 86 1009.3
20260509175611 16 261 4.8 14.5 0.00 1.02 1.02 86 1009.6
20260509175109 15 218 9.7 14.5 0.00 1.02 1.02 88 1009.5
20260509174605 15 293 9.7 16.1 0.00 1.02 1.02 89 1009.6
20260509174100 15 252 9.7 11.3 0.00 1.02 1.02 90 1009.7
20260509173555 14 269 9.7 22.5 0.00 1.02 1.02 91 1009.6
20260509173052 14 310 8.0 11.3 0.00 1.02 1.02 92 1010.0
20260509172549 13 232 6.4 9.7 0.00 1.02 1.02 93 1009.8
20260509172044 13 337 4.8 11.3 0.00 1.02 1.02 93 1009.8
20260509171540 13 254 9.7 11.3 0.00 1.02 1.02 94 1009.9
20260509171037 13 308 9.7 11.3 0.00 1.02 1.02 94 1010.0
20260509170533 13 267 4.8 9.7 0.00 1.02 1.02 95 1010.0
20260509170029 13 306 1.6 14.5 0.00 1.02 1.02 96 1010.2
20260509165528 13 323 6.4 6.4 0.00 1.02 1.02 96 1010.3
20260509165023 12 259 6.4 9.7 0.00 1.02 1.02 96 1010.0
20260509164520 12 296 6.4 12.9 0.00 1.02 1.02 96 1009.8
20260509164015 12 215 8.0 11.3 0.00 1.02 1.02 96 1009.7
20260509163513 12 222 6.4 11.3 0.00 1.02 1.02 96 1010.0
20260509163008 12 269 8.0 11.3 0.00 1.02 1.02 96 1009.8
20260509162506 12 281 4.8 9.7 0.00 1.02 1.02 96 1009.9
20260509162001 12 335 6.4 9.7 0.00 1.02 1.02 97 1010.0
20260509161458 12 285 6.4 11.3 0.00 1.02 1.02 97 1009.9
20260509160953 12 265 16.1 20.9 0.00 1.02 1.02 98 1009.8
20260509160449 12 328 4.8 14.5 0.00 1.02 1.02 99 1009.8
20260509155944 12 316 6.4 11.3 0.00 1.02 1.02 99 1009.9
20260509155441 12 325 3.2 11.3 0.00 1.02 1.02 99 1009.6
20260509154938 12 249 6.4 12.9 0.00 1.02 1.02 99 1009.6
20260509154434 12 308 4.8 14.5 0.00 1.02 1.02 99 1009.8
20260509153931 11 318 4.8 6.4 0.00 1.02 1.02 99 1009.6
20260509153428 11 266 8.0 12.9 0.00 1.02 1.02 99 1009.6
20260509152925 11 237 9.7 12.9 0.00 1.02 1.02 99 1009.7
20260509152421 11 281 9.7 14.5 0.00 1.02 1.02 99 1009.8
20260509151918 11 271 8.0 11.3 0.00 1.02 1.02 99 1009.8
20260509151414 11 179 9.7 14.5 0.00 1.02 1.02 99 1009.7
20260509150912 11 281 6.4 11.3 0.00 1.02 1.02 99 1009.6
20260509150410 11 261 6.4 9.7 0.00 1.02 1.02 99 1009.5
20260509145908 11 236 6.4 9.7 0.00 1.02 1.02 99 1009.8
20260509145407 11 252 8.0 9.7 0.00 1.02 1.02 99 1009.7
20260509144903 11 234 14.5 17.7 0.00 1.02 1.02 99 1009.7
20260509144400 11 264 3.2 12.9 0.00 1.02 1.02 99 1009.9
20260509143857 11 275 6.4 9.7 0.00 1.02 1.02 99 1009.4
20260509143355 11 285 11.3 14.5 0.00 1.02 1.02 99 1009.8
20260509142851 11 217 14.5 17.7 0.00 1.02 1.02 99 1009.8
20260509142348 10 337 4.8 6.4 0.00 1.02 1.02 99 1009.7
20260509141843 10 221 11.3 12.9 0.00 1.02 1.02 99 1009.8
20260509141341 10 295 6.4 12.9 0.00 1.02 1.02 99 1009.8
20260509140837 10 314 4.8 12.9 0.00 1.02 1.02 99 1009.8
20260509140334 10 347 4.8 14.5 0.00 1.02 1.02 99 1009.9
20260509135832 10 283 8.0 12.9 0.00 1.02 1.02 99 1010.0
20260509135329 10 212 9.7 16.1 0.00 1.02 1.02 99 1010.0
20260509134826 10 274 6.4 12.9 0.00 1.02 1.02 99 1009.8
20260509134323 10 289 6.4 12.9 0.00 1.02 1.02 99 1009.9
20260509133820 10 285 6.4 11.3 0.00 1.02 1.02 99 1009.9
20260509133317 10 259 3.2 20.9 0.00 1.02 1.02 99 1009.8
20260509132816 10 290 9.7 12.9 0.00 1.02 1.02 99 1010.0
20260509132314 10 333 3.2 9.7 0.00 1.02 1.02 99 1010.2
20260509131810 10 296 9.7 11.3 0.00 1.02 1.02 99 1009.9
20260509131307 10 312 4.8 9.7 0.00 1.02 1.02 99 1009.8
20260509130803 10 256 9.7 17.7 0.00 1.02 1.02 99 1009.7
20260509130259 10 246 6.4 14.5 0.00 1.02 1.02 99 1009.7
20260509125756 10 332 8.0 14.5 0.00 1.02 1.02 99 1009.9
20260509125253 10 282 8.0 14.5 0.00 1.02 1.02 99 1010.0
20260509124749 10 342 4.8 6.4 0.00 1.02 1.02 99 1009.8
20260509124245 10 323 6.4 9.7 0.00 1.02 1.02 99 1009.9
20260509123744 10 353 6.4 9.7 0.00 1.02 1.02 99 1009.8
20260509123241 10 292 6.4 11.3 0.00 1.02 1.02 99 1010.0
20260509122736 10 233 8.0 12.9 0.00 1.02 1.02 99 1010.0
20260509122233 10 243 6.4 9.7 0.00 1.02 1.02 99 1010.0
20260509121730 9 267 6.4 12.9 0.00 1.02 1.02 99 1010.0
20260509121228 9 355 1.6 11.3 0.00 1.02 1.02 99 1010.0
20260509120726 9 338 4.8 6.4 0.00 1.02 1.02 99 1010.2
20260509120223 9 341 3.2 9.7 0.00 1.02 1.02 99 1010.3
20260509115721 9 336 3.2 9.7 0.00 1.02 1.02 99 1010.2
20260509115218 9 300 3.2 6.4 0.00 1.02 1.02 99 1009.9
20260509114716 9 250 9.7 11.3 0.00 1.02 1.02 99 1009.9
20260509114215 9 338 3.2 9.7 0.18 1.02 1.02 99 1010.3
20260509113713 9 260 6.4 9.7 0.18 1.02 1.02 99 1010.0
20260509113210 9 224 6.4 12.9 0.00 0.99 0.99 99 1009.8
20260509112706 9 295 3.2 6.4 0.00 0.99 0.99 99 1010.2
20260509112203 9 269 6.4 9.7 0.18 0.99 0.99 99 1010.2
20260509111700 9 245 6.4 6.4 0.18 0.99 0.99 99 1010.2
20260509111157 9 313 6.4 11.3 0.00 0.97 0.97 99 1010.2
20260509110655 9 188 9.7 11.3 0.00 0.97 0.97 99 1010.0
20260509110151 9 356 3.2 4.8 0.13 0.97 0.97 99 1010.0
20260509105649 9 223 4.8 6.4 0.13 0.97 0.97 99 1009.9
20260509105147 9 306 1.6 4.8 0.00 0.94 0.94 99 1010.0
20260509104643 9 6 0.0 3.2 0.00 0.94 0.94 99 1009.9
20260509104140 9 356 0.0 0.0 0.00 0.94 0.94 99 1009.9
20260509103638 9 359 0.0 0.0 0.00 0.94 0.94 99 1009.9
20260509103136 9 336 0.0 0.0 0.00 0.94 0.94 99 1009.9
20260509102633 9 0 0.0 1.6 0.00 0.94 0.94 99 1009.8
20260509102130 9 356 0.0 1.6 0.00 0.94 0.94 99 1009.9
20260509101627 8 262 3.2 6.4 0.00 0.94 0.94 99 1009.9
20260509101123 9 338 3.2 4.8 0.18 0.94 0.94 99 1010.0
20260509100621 8 313 3.2 4.8 0.13 0.91 0.91 99 1010.0
20260509100118 9 327 4.8 9.7 0.30 0.91 0.91 99 1010.2
20260509095614 9 338 1.6 3.2 0.30 0.89 0.89 99 1010.0
20260509095112 9 286 3.2 3.2 0.30 0.86 0.86 99 1010.2
20260509094607 8 341 0.0 0.0 0.30 0.84 0.84 99 1010.3
20260509094105 8 4 0.0 1.6 0.13 0.81 0.81 99 1010.4
20260509093603 8 339 1.6 3.2 0.30 0.79 0.79 99 1010.4
20260509093100 8 337 1.6 1.6 0.30 0.76 0.76 99 1010.5
20260509092558 8 340 0.0 1.6 0.30 0.74 0.74 99 1010.5
20260509092057 8 350 0.0 0.0 0.18 0.69 0.69 99 1010.5
20260509091554 8 12 0.0 0.0 0.36 0.69 0.69 99 1010.5
20260509091050 8 11 0.0 0.0 0.18 0.66 0.66 99 1010.5
20260509090548 8 1 0.0 0.0 0.00 0.64 0.64 99 1010.6
20260509090045 8 14 0.0 0.0 0.13 0.64 0.64 99 1010.6
20260509085542 8 4 0.0 0.0 0.13 0.64 0.64 99 1010.7
20260509085038 8 1 0.0 1.6 0.18 0.61 0.61 99 1010.8
20260509084536 8 2 0.0 0.0 0.48 0.61 0.61 99 1010.9
20260509084032 8 359 0.0 0.0 0.43 0.58 0.58 99 1011.1
20260509083530 8 1 0.0 0.0 0.43 0.53 0.53 99 1010.9
20260509083026 8 355 0.0 1.6 0.43 0.48 0.48 99 1011.0
20260509082524 8 347 1.6 3.2 0.13 0.43 0.43 99 1011.2
20260509082021 8 314 4.8 6.4 0.18 0.41 0.41 99 1011.0
20260509081518 8 1 0.0 0.0 0.18 0.41 0.41 99 1011.0
20260509081015 8 2 0.0 3.2 0.30 0.38 0.38 99 1010.9
20260509080513 8 9 0.0 1.6 0.36 0.36 0.36 99 1010.8
20260509080011 8 359 0.0 0.0 0.48 0.33 0.33 99 1011.0
20260509075508 8 354 0.0 1.6 0.48 0.28 0.28 99 1010.8
20260509075006 8 355 0.0 1.6 0.43 0.25 0.25 99 1011.0
20260509074503 8 354 0.0 0.0 0.30 0.20 0.20 99 1010.7
20260509073959 8 356 0.0 0.0 0.30 0.18 0.18 99 1010.8
20260509073455 8 11 0.0 1.6 0.30 0.15 0.15 99 1010.9
20260509072951 8 6 0.0 0.0 0.18 0.13 0.13 99 1010.7
20260509072449 8 8 0.0 0.0 0.13 0.10 0.10 99 1010.8
20260509071945 8 4 0.0 3.2 0.13 0.10 0.10 99 1010.8
20260509071442 8 7 0.0 0.0 0.00 0.08 0.08 99 1010.8
20260509070940 8 23 0.0 0.0 0.00 0.08 0.08 99 1010.8
20260509070437 8 6 0.0 0.0 0.00 0.08 0.08 99 1010.8
20260509065932 8 7 0.0 0.0 0.00 0.08 0.08 99 1010.9
20260509065428 8 27 0.0 3.2 0.00 0.08 0.08 99 1010.9
20260509064924 8 13 0.0 0.0 0.00 0.08 0.08 99 1010.9
20260509064422 8 8 0.0 0.0 0.00 0.08 0.08 99 1010.8
20260509063920 8 10 0.0 1.6 0.00 0.08 0.08 99 1010.9
20260509063416 8 30 0.0 3.2 0.00 0.08 0.08 99 1011.0
20260509062913 8 22 0.0 0.0 0.00 0.08 0.08 99 1010.7
20260509062410 8 18 0.0 1.6 0.00 0.08 0.08 99 1011.0
20260509061907 8 15 0.0 1.6 0.00 0.08 0.08 99 1011.1
20260509061405 8 6 0.0 0.0 0.00 0.08 0.08 99 1011.2
20260509060902 8 34 0.0 0.0 0.00 0.08 0.08 99 1011.3
20260509060359 8 12 0.0 0.0 0.00 0.08 0.08 99 1011.4
20260509055854 8 5 0.0 0.0 0.00 0.08 0.08 99 1011.6
20260509055350 8 17 0.0 1.6 0.00 0.08 0.08 99 1011.7
20260509054847 8 7 0.0 0.0 0.00 0.08 0.08 99 1011.5
20260509054343 8 15 0.0 0.0 0.00 0.08 0.08 99 1011.6
20260509053842 8 13 0.0 0.0 0.00 0.08 0.08 99 1011.9
20260509053339 8 23 0.0 0.0 0.00 0.08 0.08 99 1011.7
20260509052837 8 17 0.0 0.0 0.00 0.08 0.08 99 1011.9
20260509052334 8 30 0.0 0.0 0.18 0.08 0.08 99 1011.9
20260509051832 8 10 0.0 0.0 0.18 0.08 0.08 99 1012.0
20260509051330 8 6 0.0 0.0 0.00 0.05 0.05 99 1012.0
20260509050826 8 10 0.0 0.0 0.00 0.05 0.05 99 1012.0
20260509050323 8 19 0.0 0.0 0.00 0.05 0.05 99 1012.0
20260509045820 8 25 0.0 0.0 0.00 0.05 0.05 99 1012.0
20260509045317 8 8 0.0 0.0 0.00 0.05 0.05 99 1012.1
20260509044814 8 12 0.0 0.0 0.00 0.05 0.05 99 1012.2
20260509044312 8 45 0.0 0.0 0.00 0.05 0.05 99 1012.2
20260509043808 8 42 0.0 3.2 0.00 0.05 0.05 99 1012.3
20260509043304 8 17 0.0 0.0 0.18 0.05 0.05 99 1012.4
20260509042800 8 21 0.0 1.6 0.18 0.05 0.05 99 1012.5
20260509042256 8 27 0.0 1.6 0.13 0.03 0.03 99 1012.8
20260509041753 8 14 0.0 0.0 0.00 0.00 0.00 99 1012.7
20260509041250 8 16 0.0 0.0 0.00 0.00 0.00 99 1012.7
20260509040749 8 45 0.0 0.0 0.00 0.00 0.00 99 1012.8
20260509040245 8 7 0.0 0.0 0.00 0.00 0.00 99 1013.2
20260509035742 8 12 0.0 0.0 0.00 0.28 0.28 99 1013.0
20260509035239 8 15 0.0 0.0 0.00 0.28 0.28 99 1013.0
20260509034736 8 0 0.0 0.0 0.00 0.28 0.28 99 1013.2
20260509034234 8 339 0.0 0.0 0.18 0.28 0.28 99 1013.2
20260509033730 8 13 0.0 0.0 0.18 0.28 0.28 99 1013.0
20260509033227 8 7 0.0 0.0 0.00 0.25 0.25 99 1013.3
20260509032725 8 14 0.0 0.0 0.00 0.25 0.25 99 1013.2
20260509032221 8 10 0.0 0.0 0.13 0.25 0.25 99 1013.4
20260509031719 8 9 0.0 1.6 0.00 0.23 0.23 99 1013.3
20260509031216 8 358 0.0 0.0 0.18 0.23 0.23 99 1013.2
20260509030714 8 3 0.0 0.0 0.18 0.23 0.23 99 1013.6
20260509030211 8 4 0.0 0.0 0.00 0.20 0.20 99 1013.4
20260509025708 8 6 0.0 0.0 0.00 0.20 0.20 99 1013.4
20260509025204 8 357 0.0 0.0 0.13 0.20 0.20 99 1013.5
20260509024659 9 7 0.0 0.0 0.13 0.20 0.20 99 1013.4
20260509024155 9 20 0.0 0.0 0.00 0.18 0.18 99 1013.6
20260509023653 9 3 0.0 0.0 0.18 0.18 0.18 99 1013.8
20260509023150 9 352 0.0 0.0 0.18 0.18 0.18 99 1013.9